Regional Weather Roundup
Issued by NWS

Home | Current Version | Previous Version | Graphics & Text | Print | Product List | Glossary On
Versions: 1 2 3 4 5 6 7 8 9 10 11 12 13 14 15 16 17 18 19 20 21 22 23 24 25 26 27 28 29 30 31 32 33 34 35 36 37 38 39 40 41 42 43 44 45 46 47 48 49 50
000
ASUS43 KLSX 240307
RWRMO

WEATHER SUMMARY FOR MISSOURI
NATIONAL WEATHER SERVICE SPRINGFIELD MO
1000 PM CDT THU OCT 23 2014

NOTE: "FAIR" INDICATES FEW OR NO CLOUDS BELOW 12,000 FEET WITH NO
       SIGNIFICANT WEATHER AND/OR OBSTRUCTIONS TO VISIBILITY.
       CURRENT SKY AND/OR WEATHER CONDITIONS ARE NOT AVAILABLE FOR
       CHILLICOTHE AND FARMINGTON.

MOZ001>031-035>038-043-044-053-054-240400-
...NORTHERN AND WESTERN MISSOURI...

CITY           SKY/WX    TMP DP  RH WIND       PRES   REMARKS
KANSAS CTY INT CLEAR     54  54 100 S9        30.08R FOG
KANSAS C DTWN  CLEAR     60  57  89 SW6       30.09R FOG
LEE`S SUMMIT   CLEAR     59  57  93 S6        30.10R
ST JOSEPH      FOG       56  56 100 S5        30.07R VSB 3/4
CHILLICOTHE      N/A     52  51  97 CALM      30.09R
KIRKSVILLE     FOG       51  51 100 CALM      30.08R VSB 1/4

$$
MOZ066>068-077>081-088>096-101>105-240400-
...SOUTHWEST MISSOURI...

CITY           SKY/WX    TMP DP  RH WIND       PRES   REMARKS
SPRINGFIELD    MOCLDY    53  52  96 CALM      30.13R FOG
JOPLIN         CLOUDY    56  55  97 CALM      30.14R

$$
MOZ032>034-039>042-045>050-055>058-069>072-240400-
...CENTRAL MISSOURI...

CITY           SKY/WX    TMP DP  RH WIND       PRES   REMARKS
COLUMBIA       CLEAR     54  51  90 SW6       30.10R
JEFFERSON CITY CLOUDY    60  51  72 S7        30.09F
ROLLA          CLEAR     51  46  83 SW10      30.10R
SEDALIA        CLOUDY    62  58  86 SW8       30.10S
WHITEMAN AFB   CLOUDY    62  58  87 SW7       30.09S
OSAGE BEACH    PTCLDY    55  50  82 CALM      30.11S

$$
MOZ051-052-059>065-240400-
...EAST CENTRAL MISSOURI...

CITY           SKY/WX    TMP DP  RH WIND       PRES   REMARKS
ST LOUIS INTL  MOCLDY    59  45  59 SW3       30.10S
SPIRIT OF STL  CLOUDY    57  49  74 CALM      30.09S
ST CHARLES     CLOUDY    57  48  72 CALM      30.09S

$$
MOZ072>076-082>087-097>100-106>115-240400-
...SOUTH CENTRAL AND SOUTHEAST MISSOURI...

CITY           SKY/WX    TMP DP  RH WIND       PRES   REMARKS
CAPE GIRARDEAU CLOUDY    48  45  89 CALM      30.14S
FARMINGTON     CLEAR     50  45  81 SE5       30.13F
POPLAR BLUFF   PTCLDY    49  45  86 CALM      30.13R
WEST PLAINS    CLEAR     49  45  86 CALM      30.14S

$$



USA.gov is the U.S. government's official web portal to all federal, state and local government web resources and services.